User: anonymous   Login
Location: Nantong Television Tower
(32.0188°N, 120.8512°E)
Time: 04:34:01
(UTC+08:00)
Language:

ATLAS 3B CENTAUR R/B - Orbit

View from above orbital plane
View from above orbital plane
View from above satellite
View from above satellite

Ground track
Ground track

The orbit data is extracted from the following two-line orbital elements,

1 28118U 03057B   17328.55656987  .00076473 -10701-5  10214-2 0  9999
2 28118  28.1370  58.8989 2943899 246.5972  79.9878  9.59665836304865
Epoch (UTC): 24 November 2017 13:21:27
Eccentricity: 0.2943899
inclination: 28.1370°
perigee height: 222 km
apogee height: 5729 km
right ascension of ascending node: 58.8989°
argument of perigee: 246.5972°
revolutions per day: 9.59665836
mean anomaly at epoch: 79.9878°
orbit number at epoch: 30486

The dashed part of the orbit path shows where the satellite is in the earth's shadow,  

DLR